Location: Marcé
(47.5801°N, 0.3280°W)
Time: 01:17:46
(UTC+01:00)

Vanguard 1 Rocket - Visible Passes

Search period start: 30 November 2021 00:00
Search period end: 10 December 2021 00:00
Orbit: 650 x 4226 km, 34.3° (Epoch: 29 November)

Date Brightness Start Highest point End Pass type
(mag) Time Alt. Az. Time Alt. Az. Time Alt. Az.
30 Nov 10.8 02:27:24 20° ESE 02:27:24 20° ESE 02:37:13 10° E visible
30 Nov 10.1 04:44:42 34° SSW 04:50:56 47° SSE 05:12:14 10° E visible
30 Nov 10.8 07:02:52 10° WSW 07:19:43 55° S 07:44:27 10° ESE visible
01 Dec 10.2 03:37:35 36° SSE 03:38:48 36° SSE 03:56:14 10° E visible
01 Dec 10.3 05:54:52 22° WSW 06:05:57 54° S 06:29:35 10° ESE visible
02 Dec 10.7 02:30:24 23° ESE 02:30:24 23° ESE 02:39:51 10° E visible
02 Dec 9.9 04:47:41 38° SSW 04:52:54 49° SSE 05:14:04 10° E visible
02 Dec 10.7 07:05:25 10° WSW 07:21:40 53° S 07:46:00 10° ESE visible
03 Dec 10.0 03:40:30 39° SSE 03:40:43 39° SSE 03:58:14 10° E visible
03 Dec 10.2 05:57:47 24° WSW 06:08:00 53° S 06:31:15 10° ESE visible
04 Dec 10.6 02:33:17 25° ESE 02:33:17 25° ESE 02:42:15 10° E visible
04 Dec 9.8 04:50:34 41° SSW 04:54:59 50° SSE 05:15:51 10° ESE visible
04 Dec 10.7 07:08:02 10° W 07:23:39 49° SSW 07:47:21 10° SE visible
05 Dec 9.9 03:43:21 42° SSE 03:43:21 42° SSE 04:00:10 10° E visible
05 Dec 10.1 06:00:37 25° WSW 06:10:06 52° S 06:32:47 10° ESE visible
06 Dec 10.5 02:36:06 25° ESE 02:36:06 25° ESE 02:44:28 10° E visible
06 Dec 9.7 04:53:23 43° SSW 04:57:09 50° S 05:17:32 10° ESE visible
06 Dec 10.6 07:10:44 10° W 07:25:39 45° SSW 07:48:29 10° SE visible
07 Dec 9.9 03:46:09 43° SSE 03:46:09 43° SSE 04:02:02 10° E visible
07 Dec 10.1 06:03:25 26° WSW 06:12:15 49° S 06:34:10 10° ESE visible
08 Dec 10.5 02:38:54 25° ESE 02:38:54 25° ESE 02:46:36 10° E visible
08 Dec 9.7 04:56:10 43° SSW 04:59:23 49° S 05:19:09 10° ESE visible
08 Dec 10.6 07:13:33 10° W 07:27:41 40° SSW 07:49:20 10° SE visible
09 Dec 9.8 03:48:55 43° SSE 03:48:55 43° SSE 04:03:51 10° ESE visible
09 Dec 10.0 06:06:11 25° WSW 06:14:27 45° SSW 06:35:22 10° SE visible
